TimePDT,TemperatureF,Dew PointF,Humidity,Sea Level PressureIn,VisibilityMPH,Wind Direction,Wind SpeedMPH,Gust SpeedMPH,PrecipitationIn,Events,Conditions,WindDirDegrees,DateUTC
12:56 AM,73.9,34.0,23,29.70,10.0,SW,9.2,-,N/A,,Clear,220,2013-05-06 07:56:00
1:56 AM,73.0,35.1,25,29.70,10.0,SW,8.1,-,N/A,,Clear,230,2013-05-06 08:56:00
2:56 AM,72.0,37.9,29,29.70,10.0,SW,8.1,-,N/A,,Clear,230,2013-05-06 09:56:00
3:56 AM,69.1,39.0,33,29.72,10.0,SSW,5.8,-,N/A,,Clear,210,2013-05-06 10:56:00
4:56 AM,68.0,45.0,43,29.74,10.0,SSW,13.8,-,N/A,,Clear,210,2013-05-06 11:56:00
5:56 AM,66.0,45.0,47,29.77,10.0,SW,6.9,-,N/A,,Clear,230,2013-05-06 12:56:00
6:56 AM,68.0,45.0,43,29.80,10.0,WSW,5.8,-,N/A,,Clear,250,2013-05-06 13:56:00
7:56 AM,72.0,45.0,38,29.81,10.0,SW,11.5,-,N/A,,Clear,220,2013-05-06 14:56:00
8:56 AM,73.0,44.1,35,29.83,10.0,SSW,11.5,19.6,N/A,,Partly Cloudy,200,2013-05-06 15:56:00
9:56 AM,73.0,44.1,35,29.84,10.0,SSW,11.5,-,N/A,,Mostly Cloudy,210,2013-05-06 16:56:00
10:56 AM,77.0,44.1,31,29.84,10.0,SSW,15.0,19.6,N/A,,Clear,210,2013-05-06 17:56:00
11:56 AM,78.1,43.0,29,29.83,10.0,SSE,9.2,-,N/A,,Mostly Cloudy,160,2013-05-06 18:56:00
12:56 PM,81.0,39.0,22,29.80,10.0,SSW,8.1,18.4,N/A,,Partly Cloudy,210,2013-05-06 19:56:00
1:56 PM,82.9,39.9,22,29.78,10.0,SSW,20.7,29.9,N/A,,Scattered Clouds,200,2013-05-06 20:56:00
2:56 PM,82.9,39.0,21,29.76,10.0,South,16.1,31.1,N/A,,Scattered Clouds,190,2013-05-06 21:56:00
3:56 PM,82.9,39.9,22,29.75,10.0,South,23.0,28.8,N/A,,Mostly Cloudy,190,2013-05-06 22:56:00
4:56 PM,82.9,39.0,21,29.74,10.0,SSW,21.9,29.9,N/A,,Overcast,210,2013-05-06 23:56:00
5:56 PM,82.0,37.0,20,29.74,10.0,SW,17.3,24.2,N/A,,Partly Cloudy,230,2013-05-07 00:56:00
6:56 PM,80.1,36.0,20,29.74,10.0,SSW,13.8,-,N/A,,Clear,200,2013-05-07 01:56:00
7:41 PM,78.8,39.2,24,29.82,10.0,SW,15.0,24.2,N/A,,Mostly Cloudy,230,2013-05-07 02:41:00
7:56 PM,77.0,39.0,25,29.75,10.0,WSW,16.1,24.2,N/A,,Partly Cloudy,240,2013-05-07 02:56:00
9:56 PM,73.9,45.0,35,29.80,10.0,WSW,18.4,-,N/A,,Clear,240,2013-05-07 04:56:00
11:56 PM,70.0,45.0,41,29.81,10.0,WSW,16.1,-,N/A,,Clear,250,2013-05-07 06:56:00